Weather History for 78762 - October, 2012

Change the Weather History Date:

Tuesday, October 9, 2012

  Actual Average Record
Temperature  
Mean Temperature 73 °F -  
Max Temperature 80 °F 78 °F - ()
Min Temperature 66 °F 64 °F - ()
Cooling Degree Days 8    
Growing Degree Days 23 (Base 50)    
Moisture  
Dew Point 66 °F    
Average Humidity 84    
Maximum Humidity 94    
Minimum Humidity 58    
Precipitation  
Precipitation 0.02 in 0.36 in - ()
Sea Level Pressure  
Sea Level Pressure 30.00 in    
Wind  
Wind Speed 3 mph ()    
Max Wind Speed 12 mph    
Max Gust Speed -    
Visibility 5.7 miles    
Events Fog , Rain    
T = Trace of Precipitation, MM = Missing Value Source: Averaged Metar Reports

Daily Weather History Graph

Daily Weather History Graph

Search for Another Location

Airport or City:

Trip Planner

Search our weather history database for the weather conditions in past years. The results will help you decide how hot, cold, wet, or windy it might be!

Date:

Astronomy

Oct. 09, 2012 Rise Set
Actual Time 5:25 AM CST 5:22 PM CST
Civil Twilight 5:04 AM CST 5:43 PM CST
Nautical Twilight 4:39 AM CST 6:08 PM CST
Astronomical Twilight 4:15 AM CST 6:32 PM CST
Moon 12:04 AM CST (10/9) 12:50 PM CST (10/9)
Length of Visible Light 12h 39m
Length of Day
11h 57m
Last Quarter, 36% of the Moon is Illuminated
Oct 9
Last Quarter
Oct 15
New
Oct 21
First Quarter
Oct 29
Full
Nov 6
Last Quarter

Hourly Weather History & Observations

Time (CST) Temp. Heat Index Dew Point Humidity Pressure Visibility Wind Dir Wind Speed Gust Speed Precip Events Conditions
12:00 AM 67 °F - 65 °F 92% 29.87 in 4 mi South 1.2 mph - - Rain Light Drizzle
12:00 AM 68.0 °F - 66.2 °F 94% 30.03 in 5.6 mi South 1.2 mph - N/A Fog Light Drizzle
1:00 AM 68.0 °F - 66.2 °F 94% 30.01 in 5.0 mi NW 1.2 mph - N/A Fog Patches of Fog
2:00 AM 66.2 °F - 64.4 °F 94% 29.99 in 0.2 mi South 2.3 mph - N/A Fog Fog
2:33 AM 66.2 °F - 64.4 °F 94% 29.99 in 3.7 mi Variable 2.3 mph - N/A Fog Patches of Fog
3:00 AM 67 °F - 65 °F 91% 29.86 in 1 mi West 2.3 mph - - Fog Patches of Fog
3:00 AM 66.2 °F - 64.4 °F 94% 29.99 in 4.3 mi West 2.3 mph - N/A Fog Patches of Fog
4:00 AM 66.2 °F - 64.4 °F 94% 29.99 in 6.2 mi East 2.3 mph - N/A Fog Patches of Fog
5:00 AM 66.2 °F - 64.4 °F 94% 30.02 in 6.2 mi NNE 2.3 mph - N/A Fog Patches of Fog
6:00 AM 67 °F - 64 °F 88% 29.89 in 2 mi NNE 2.3 mph - - Fog Patches of Fog
6:00 AM 66.2 °F - 64.4 °F 94% 30.04 in 5.0 mi NNE 2.3 mph - N/A Fog Patches of Fog
7:00 AM 68.0 °F - 66.2 °F 94% 30.07 in 6.2 mi East 3.5 mph - N/A Fog Mostly Cloudy
8:00 AM 71.6 °F - 64.4 °F 78% 30.08 in 6.2 mi NNE 3.5 mph - N/A   Mostly Cloudy
9:00 AM 75 °F - 63 °F 58% 29.94 in 12 mi SE 2.3 mph - -   Scattered Clouds
9:00 AM 75.2 °F - 64.4 °F 69% 30.08 in 6.2 mi SE 2.3 mph - N/A   Mostly Cloudy
10:00 AM 77.0 °F - 66.2 °F 69% 30.07 in 6.2 mi South 2.3 mph - N/A   Mostly Cloudy
10:10 AM 75.2 °F - 68.0 °F 78% 30.06 in 6.2 mi WSW 5.8 mph - N/A   Mostly Cloudy
11:00 AM 78.8 °F - 66.2 °F 65% 30.04 in 6.2 mi West 5.8 mph - N/A   Mostly Cloudy
12:00 PM 80.6 °F 82.7 °F 66.2 °F 61% 30.01 in 6.2 mi SW 6.9 mph - N/A   Mostly Cloudy
1:00 PM 78.8 °F - 66.2 °F 65% 29.99 in 6.2 mi SW 8.1 mph - N/A   Scattered Clouds
2:00 PM 77.0 °F - 68.0 °F 74% 29.98 in 6.2 mi SW 10.4 mph - N/A   Scattered Clouds
3:00 PM 75 °F - 68 °F 74% 29.82 in 12 mi WSW 11.5 mph - -   Partly Cloudy
3:00 PM 75.2 °F - 68.0 °F 78% 29.96 in 6.2 mi WSW 11.5 mph - N/A   Mostly Cloudy
4:00 PM 71.6 °F - 66.2 °F 83% 29.98 in 6.2 mi WSW 9.2 mph - N/A   Mostly Cloudy
5:00 PM 71.6 °F - 68.0 °F 88% 30.00 in 6.2 mi SW 3.5 mph - N/A   Mostly Cloudy
6:00 PM 70 °F - 67 °F 88% 29.88 in 9 mi WSW 2.3 mph - - Rain Light Rain
6:00 PM 69.8 °F - 68.0 °F 94% 30.02 in 6.2 mi WSW 2.3 mph - N/A Rain Light Rain
7:00 PM 69.8 °F - 66.2 °F 88% 30.05 in 6.2 mi WSW 3.5 mph - N/A Rain Light Rain
8:00 PM 69.8 °F - 66.2 °F 88% 30.07 in 6.2 mi West 4.6 mph - N/A Fog Patches of Fog
9:00 PM 69 °F - 66 °F 89% 29.94 in 3 mi West 3.5 mph - -   Mist
9:00 PM 68.0 °F - 66.2 °F 94% 30.09 in 3.1 mi West 3.5 mph - N/A Rain Light Rain
10:00 PM 68.0 °F - 66.2 °F 94% 30.07 in 6.2 mi NW 2.3 mph - N/A Fog Light Drizzle
11:00 PM 68.0 °F - 66.2 °F 94% 30.06 in 5.0 mi Calm Calm - N/A Fog Fog